Location: �terpigny
(49.8910°N, 2.9249°E)
Time: 06:19:04
(UTC+00:00)

Cosmos 1908 - Pass Details

Date: 31 May 2022
Orbit: 505 x 523 km, 82.5° (Epoch: 03 July)

Event Time Altitude Azimuth Distance (km) Brightness Sun altitude
Rises 00:04:06 0° 341° (NNW) 2,622 8.0 -18.1°
Reaches altitude 10° 00:06:24 10° 330° (NNW) 1,731 6.7 -18.1°
Maximum altitude 00:09:42 29° 269° (W) 955 4.4 -18.0°
Enters shadow 00:10:32 26° 245° (WSW) 1,021 4.4 -18.0°
